GW2484 Weather Reports


Display with metric or nautical units.
time (UTC)temp
F
wind
direction
speed
MPH
gust
MPH
rain 1hr
in
rain 24hr
in
rain mn
in
humidity
%
barometer
mb
20260510152011 64 316 2.0 5.0 0.00 0.01 0.01 81 1017.0
20260510151525 64 316 1.0 4.0 0.00 0.01 0.01 81 1016.9
20260510151008 64 337 2.0 6.0 0.00 0.01 0.01 81 1017.0
20260510150505 64 319 3.0 7.0 0.00 0.01 0.01 82 1017.0
20260510145506 64 313 2.0 4.0 0.00 0.01 0.01 85 1016.5
20260510145009 64 328 1.0 5.0 0.01 0.01 0.01 85 1016.4
20260510144528 64 358 1.0 5.0 0.01 0.01 0.01 86 1016.5
20260510144010 64 17 0.0 4.0 0.01 0.01 0.01 86 1016.4
20260510143507 64 326 2.0 4.0 0.01 0.01 0.01 86 1016.3
20260510143017 64 133 0.0 2.0 0.01 0.01 0.01 86 1016.2
20260510142506 64 179 1.0 4.0 0.01 0.01 0.01 86 1016.3
20260510142010 64 325 0.0 4.0 0.01 0.01 0.01 86 1016.5
20260510141517 64 344 0.0 4.0 0.01 0.01 0.01 86 1016.7
20260510141007 64 320 0.0 4.0 0.01 0.01 0.01 87 1016.9
20260510140506 63 205 0.0 2.0 0.01 0.01 0.01 87 1016.7
20260510140014 63 197 0.0 2.0 0.01 0.01 0.01 86 1016.4
20260510135507 63 229 0.0 2.0 0.01 0.01 0.01 86 1016.8
20260510135010 63 229 0.0 1.0 0.00 0.00 0.00 85 1016.6
20260510134512 63 229 0.0 0.0 0.00 0.00 0.00 85 1016.7
20260510134010 63 229 0.0 1.0 0.00 0.00 0.00 84 1016.7
20260510133507 63 229 0.0 1.0 0.00 0.00 0.00 84 1016.7
20260510133026 63 224 0.0 2.0 0.00 0.00 0.00 84 1016.8
20260510132511 63 224 0.0 2.0 0.00 0.00 0.00 84 1016.8
20260510132008 63 218 0.0 2.0 0.00 0.00 0.00 83 1016.8
20260510131535 63 254 0.0 2.0 0.00 0.00 0.00 83 1016.8
20260510131010 63 252 0.0 3.0 0.00 0.00 0.00 83 1016.8
20260510130507 63 252 1.0 3.0 0.00 0.00 0.00 83 1017.0
20260510130024 63 252 0.0 2.0 0.00 0.00 0.00 83 1017.0
20260510125509 63 160 0.0 2.0 0.00 0.00 0.00 83 1016.7
20260510125008 63 360 0.0 0.0 0.00 0.00 0.00 83 1016.3
20260510124522 63 360 0.0 0.0 0.00 0.00 0.00 83 1016.1
20260510124006 63 28 0.0 0.0 0.00 0.00 0.00 83 1016.0
20260510123513 63 28 0.0 0.0 0.00 0.00 0.00 83 1015.9
20260510123020 63 28 0.0 0.0 0.00 0.00 0.00 83 1015.8
20260510122510 63 28 0.0 0.0 0.00 0.00 0.00 83 1015.5
20260510122011 63 28 0.0 2.0 0.00 0.00 0.00 83 1015.3
20260510121517 63 27 0.0 2.0 0.00 0.00 0.00 83 1015.2
20260510121015 62 27 0.0 3.0 0.00 0.00 0.00 83 1015.0
20260510120509 62 27 1.0 3.0 0.00 0.00 0.00 84 1014.8
20260510120015 62 11 0.0 3.0 0.00 0.00 0.00 84 1014.7
20260510115510 62 11 1.0 5.0 0.00 0.00 0.00 84 1014.6
20260510115014 62 52 3.0 5.0 0.00 0.00 0.00 83 1014.4
20260510114527 62 191 1.0 2.0 0.00 0.00 0.00 83 1014.4
20260510114014 62 197 0.0 2.0 0.00 0.00 0.00 82 1014.2
20260510113508 62 145 1.0 2.0 0.00 0.00 0.00 82 1014.0
20260510113026 62 2 0.0 2.0 0.00 0.00 0.00 82 1014.0
20260510112511 62 9 1.0 2.0 0.00 0.00 0.00 81 1013.8
20260510112009 63 8 0.0 2.0 0.00 0.00 0.00 81 1013.8
20260510111528 63 8 0.0 2.0 0.00 0.00 0.00 81 1013.6
20260510111009 63 8 0.0 2.0 0.00 0.00 0.00 80 1013.6
20260510110510 63 8 0.0 3.0 0.00 0.00 0.00 80 1013.6
20260510110026 63 110 0.0 3.0 0.00 0.00 0.00 80 1013.5
20260510105507 63 110 0.0 3.0 0.00 0.00 0.00 80 1013.4
20260510105018 63 89 1.0 3.0 0.00 0.00 0.00 79 1013.3
20260510104524 63 89 1.0 3.0 0.00 0.00 0.00 78 1013.4
20260510104007 64 89 1.0 3.0 0.00 0.00 0.00 78 1013.4
20260510103510 64 84 1.0 2.0 0.00 0.00 0.00 78 1013.4
20260510103023 64 84 0.0 2.0 0.00 0.00 0.00 78 1013.4
20260510102509 64 84 1.0 3.0 0.00 0.00 0.00 77 1013.3
20260510102004 64 85 1.0 3.0 0.00 0.00 0.00 77 1013.1
20260510101508 64 85 0.0 5.0 0.00 0.00 0.00 77 1013.1
20260510101004 64 85 1.0 5.0 0.00 0.00 0.00 77 1013.1
20260510100504 64 82 1.0 5.0 0.00 0.00 0.00 76 1013.0
20260510100006 64 81 1.0 4.0 0.00 0.00 0.00 76 1013.1
20260510095510 65 78 1.0 4.0 0.00 0.00 0.00 75 1013.1
20260510095006 65 79 2.0 4.0 0.00 0.00 0.00 75 1013.0
20260510094510 65 60 2.0 4.0 0.00 0.00 0.00 75 1013.0
20260510094004 65 65 1.0 4.0 0.00 0.00 0.00 74 1012.9
20260510093504 65 63 2.0 5.0 0.00 0.00 0.00 74 1013.0
20260510093009 65 73 0.0 5.0 0.00 0.00 0.00 73 1013.1
20260510092504 65 50 1.0 4.0 0.00 0.00 0.00 73 1013.1
20260510092004 65 51 2.0 4.0 0.00 0.00 0.00 72 1012.9
20260510091513 65 41 0.0 0.0 0.00 0.00 0.00 71 1012.8
20260510091006 66 40 0.0 3.0 0.00 0.00 0.00 71 1012.7
20260510090504 66 41 1.0 4.0 0.00 0.00 0.00 71 1012.6
20260510090009 66 40 1.0 4.0 0.00 0.00 0.00 71 1012.3
20260510085504 66 36 3.0 4.0 0.00 0.00 0.00 70 1012.1
20260510085004 66 35 0.0 2.0 0.00 0.00 0.00 69 1012.0
20260510084508 67 35 1.0 3.0 0.00 0.00 0.00 69 1011.9
20260510084006 67 35 1.0 4.0 0.00 0.00 0.00 69 1011.8
20260510083506 67 356 1.0 5.0 0.00 0.00 0.00 68 1011.7
20260510083007 67 33 2.0 5.0 0.00 0.00 0.00 68 1011.4
20260510082504 67 4 2.0 7.0 0.00 0.00 0.00 68 1011.3
20260510082004 67 324 1.0 7.0 0.00 0.00 0.00 67 1011.1
20260510081512 67 341 2.0 7.0 0.00 0.00 0.00 67 1011.1
20260510081007 67 335 1.0 7.0 0.00 0.00 0.00 67 1010.8
20260510080505 67 349 2.0 8.0 0.00 0.00 0.00 67 1010.6
20260510080010 67 285 3.0 8.0 0.00 0.00 0.00 68 1010.6
20260510075504 67 358 3.0 9.0 0.00 0.00 0.00 67 1009.5
20260510075005 67 84 2.0 10.0 0.00 0.00 0.00 67 1008.8
20260510074511 67 128 4.0 15.0 0.00 0.00 0.00 67 1008.7
20260510074004 67 129 6.0 16.0 0.00 0.00 0.00 67 1008.4
20260510073503 67 121 8.0 16.0 0.00 0.00 0.00 68 1008.8
20260510073014 67 133 8.0 15.0 0.00 0.00 0.00 68 1010.3
20260510072503 68 226 4.0 13.0 0.00 0.00 0.00 68 1011.5
20260510070012 69 159 9.0 16.0 0.00 0.00 0.00 63 1011.8
20260510065507 69 162 9.0 16.0 0.00 0.00 0.00 62 1011.9
20260510065009 69 177 4.0 12.0 0.00 0.00 0.00 63 1013.2
20260510064531 69 194 4.0 14.0 0.00 0.00 0.00 64 1014.0
20260510064008 69 296 6.0 14.0 0.00 0.00 0.00 65 1014.3
20260510063508 69 218 2.0 8.0 0.00 0.00 0.00 65 1013.9
20260510063014 69 300 2.0 8.0 0.00 0.00 0.00 65 1013.5
20260510062506 69 191 2.0 7.0 0.00 0.00 0.00 65 1013.4
20260510062007 69 141 1.0 2.0 0.00 0.00 0.00 64 1013.0
20260510061516 69 141 0.0 2.0 0.00 0.00 0.00 63 1013.0
20260510061008 69 141 1.0 3.0 0.00 0.00 0.00 63 1013.1
20260510060507 69 141 2.0 3.0 0.00 0.00 0.00 64 1013.2
20260510060018 69 41 0.0 4.0 0.00 0.00 0.00 64 1013.3
20260510055508 69 41 1.0 4.0 0.00 0.00 0.00 63 1013.4
20260510055007 70 27 1.0 4.0 0.00 0.00 0.00 64 1013.6
20260510054518 70 325 0.0 3.0 0.00 0.00 0.00 63 1013.7
20260510054007 70 325 0.0 3.0 0.00 0.00 0.00 63 1013.8
20260510053511 70 323 2.0 5.0 0.00 0.00 0.00 63 1013.9
20260510053037 70 325 2.0 5.0 0.00 0.00 0.00 63 1013.9
20260510052505 70 312 2.0 5.0 0.00 0.00 0.00 64 1013.9
20260510052006 70 329 2.0 3.0 0.00 0.00 0.00 64 1013.9
20260510051523 70 330 0.0 4.0 0.00 0.00 0.00 64 1013.7
20260510051009 69 331 2.0 4.0 0.00 0.00 0.00 64 1013.6
20260510050508 69 326 2.0 4.0 0.00 0.00 0.00 64 1013.4
20260510050017 69 21 1.0 3.0 0.00 0.00 0.00 64 1013.2
20260510045507 69 94 0.0 3.0 0.00 0.00 0.00 65 1012.8
20260510045011 69 130 0.0 2.0 0.00 0.00 0.00 65 1012.6
20260510044514 68 131 0.0 2.0 0.00 0.00 0.00 65 1012.5
20260510044008 68 131 0.0 1.0 0.00 0.00 0.00 65 1012.4
20260510043510 68 131 0.0 0.0 0.00 0.00 0.00 63 1012.3
20260510043023 68 131 0.0 0.0 0.00 0.00 0.00 64 1012.3
20260510042507 68 131 0.0 0.0 0.00 0.00 0.00 64 1012.2
20260510042006 68 131 0.0 0.0 0.00 0.00 0.00 64 1012.1
20260510041520 68 131 0.0 0.0 0.00 0.00 0.00 65 1012.0
20260510041012 68 131 0.0 0.0 0.00 0.00 0.00 65 1012.0
20260510040507 68 131 0.0 0.0 0.00 0.00 0.00 64 1012.0
20260510040022 68 131 0.0 0.0 0.00 0.00 0.00 64 1011.9
20260510035507 68 131 0.0 1.0 0.00 0.00 0.00 63 1011.9
20260510035010 68 131 0.0 1.0 0.00 0.00 0.00 63 1011.8
20260510034522 68 131 0.0 2.0 0.00 0.00 0.00 62 1011.7
20260510034010 68 131 0.0 2.0 0.00 0.00 0.00 62 1011.8
20260510033508 69 131 0.0 2.0 0.00 0.01 0.00 62 1011.8
20260510032507 69 131 0.0 1.0 0.00 0.01 0.00 62 1011.9
20260510032017 69 131 0.0 1.0 0.00 0.01 0.00 61 1011.9
20260510031528 69 131 0.0 1.0 0.00 0.01 0.00 60 1011.8
20260510031010 69 131 1.0 1.0 0.00 0.01 0.00 60 1011.8
20260510030510 69 131 0.0 1.0 0.00 0.01 0.00 60 1011.9
20260510030020 69 131 0.0 1.0 0.00 0.01 0.00 59 1011.8
20260510025507 69 131 0.0 1.0 0.00 0.01 0.00 59 1011.7
20260510025012 70 131 0.0 1.0 0.00 0.01 0.00 58 1011.7
20260510024525 70 131 0.0 2.0 0.00 0.01 0.00 58 1011.4
20260510024010 70 131 0.0 2.0 0.00 0.01 0.00 58 1011.2
20260510023507 70 131 0.0 2.0 0.00 0.01 0.00 56 1011.0
20260510023024 70 131 0.0 2.0 0.00 0.01 0.00 55 1010.7
20260510022510 71 131 0.0 2.0 0.00 0.01 0.00 54 1010.5
20260510022007 71 131 0.0 2.0 0.00 0.01 0.00 54 1010.3
20260510021529 71 131 0.0 2.0 0.00 0.01 0.00 53 1010.2
20260510021011 72 131 0.0 2.0 0.00 0.01 0.00 52 1010.1
20260510020510 72 131 0.0 2.0 0.00 0.01 0.00 51 1010.0
20260510020029 72 131 0.0 2.0 0.00 0.01 0.00 50 1009.9
20260510015508 72 131 0.0 2.0 0.00 0.01 0.00 49 1009.8
20260510015008 73 131 0.0 2.0 0.00 0.01 0.00 49 1009.7
20260510014504 73 131 0.0 2.0 0.00 0.01 0.00 48 1009.6
20260510014007 74 131 0.0 2.0 0.00 0.01 0.00 48 1009.7
20260510013510 74 131 0.0 2.0 0.00 0.01 0.00 47 1009.6
20260510013008 75 131 0.0 2.0 0.00 0.01 0.00 47 1009.5
20260510012505 75 131 0.0 2.0 0.00 0.01 0.00 46 1009.4
20260510012007 76 131 0.0 2.0 0.00 0.01 0.00 44 1009.3
20260510011522 76 131 0.0 2.0 0.00 0.01 0.00 44 1009.2
20260510011007 77 131 0.0 3.0 0.00 0.01 0.00 43 1009.3
20260510010505 77 130 0.0 3.0 0.00 0.01 0.00 42 1009.2
20260510010021 77 130 1.0 4.0 0.00 0.01 0.00 42 1009.2
20260510005507 78 151 1.0 4.0 0.00 0.01 0.00 41 1009.1
20260510005005 78 129 1.0 5.0 0.00 0.01 0.00 41 1009.1
20260510004524 78 137 1.0 6.0 0.00 0.01 0.00 42 1009.0
20260510004004 79 137 2.0 6.0 0.00 0.10 0.00 42 1009.0
20260510003508 79 91 2.0 5.0 0.00 0.16 0.00 43 1008.9
20260510003014 79 126 1.0 5.0 0.00 0.16 0.00 43 1008.9
20260510002505 79 137 4.0 5.0 0.00 0.16 0.00 42 1008.8
20260510002007 80 150 2.0 7.0 0.00 0.17 0.00 43 1008.9
20260510001512 80 116 3.0 7.0 0.00 0.18 0.00 42 1008.9
20260510001004 80 133 1.0 9.0 0.00 0.20 0.00 42 1008.9
20260510000507 80 151 2.0 9.0 0.00 0.26 0.00 41 1008.9
20260510000011 80 122 4.0 8.0 0.00 0.47 0.00 41 1008.9
20260509235509 81 142 4.0 9.0 0.00 0.50 0.00 41 1008.9
20260509235009 81 125 4.0 9.0 0.00 0.50 0.00 41 1009.0
20260509234507 81 96 2.0 6.0 0.00 0.55 0.00 40 1009.0
20260509234009 81 135 3.0 7.0 0.00 0.60 0.00 39 1009.1
20260509233509 81 115 3.0 7.0 0.00 0.60 0.00 38 1009.1
20260509233007 81 129 2.0 8.0 0.00 0.60 0.00 37 1009.1
20260509232507 82 129 4.0 10.0 0.00 0.60 0.00 35 1009.1
20260509232005 82 137 6.0 10.0 0.00 0.60 0.00 34 1009.2
20260509231523 82 174 6.0 10.0 0.00 0.60 0.00 32 1009.2
20260509231006 83 110 3.0 9.0 0.00 0.60 0.00 31 1009.2
20260509230504 83 102 4.0 12.0 0.00 0.60 0.00 30 1009.3
20260509230022 83 123 4.0 12.0 0.00 0.60 0.00 32 1009.3
20260509225507 84 104 3.0 11.0 0.00 0.60 0.00 32 1009.4
20260509225003 84 66 2.0 11.0 0.00 0.60 0.00 31 1009.4
20260509224520 84 106 4.0 9.0 0.00 0.60 0.00 29 1009.4
20260509224007 84 95 4.0 11.0 0.00 0.60 0.00 28 1009.4
20260509223512 85 101 6.0 11.0 0.00 0.60 0.00 30 1009.4
20260509223018 84 179 3.0 14.0 0.00 0.60 0.00 32 1009.3
20260509222503 84 139 2.0 14.0 0.00 0.60 0.00 31 1009.4
20260509222010 84 74 5.0 11.0 0.00 0.60 0.00 31 1009.5
20260509221517 85 58 3.0 10.0 0.00 0.60 0.00 33 1009.5
20260509221005 85 73 3.0 12.0 0.00 0.60 0.00 34 1009.5
20260509220507 85 92 6.0 12.0 0.00 0.60 0.00 29 1009.6
20260509220012 85 103 2.0 11.0 0.00 0.60 0.00 34 1009.5
20260509215511 85 129 6.0 11.0 0.00 0.60 0.00 31 1009.6
20260509215008 84 159 1.0 11.0 0.00 0.60 0.00 34 1009.6
20260509214512 84 48 3.0 10.0 0.00 0.60 0.00 36 1009.6
20260509214007 84 117 5.0 9.0 0.00 0.60 0.00 37 1009.7
20260509213507 84 106 2.0 10.0 0.00 0.60 0.00 41 1009.6
20260509213012 84 162 4.0 10.0 0.00 0.60 0.00 35 1009.8
20260509212508 84 130 5.0 10.0 0.00 0.60 0.00 37 1009.8
20260509212007 84 84 4.0 10.0 0.00 0.60 0.00 40 1009.9
20260509211527 83 140 5.0 10.0 0.00 0.60 0.00 39 1010.0
20260509211010 84 131 4.0 9.0 0.00 0.60 0.00 41 1010.1
20260509210506 84 81 3.0 9.0 0.00 0.60 0.00 41 1010.1
20260509210024 84 71 2.0 9.0 0.00 0.60 0.00 41 1010.2
20260509205509 84 29 4.0 9.0 0.00 0.60 0.00 34 1010.3
20260509205009 84 66 6.0 9.0 0.00 0.60 0.00 38 1010.3
20260509204525 85 75 4.0 7.0 0.00 0.60 0.00 35 1010.4
20260509204011 84 185 4.0 8.0 0.00 0.60 0.00 30 1010.4
20260509203516 84 80 4.0 8.0 0.00 0.60 0.00 30 1010.4
20260509203030 84 155 4.0 12.0 0.00 0.60 0.00 29 1010.5
20260509202507 84 76 7.0 12.0 0.00 0.60 0.00 36 1010.4
20260509202011 83 103 3.0 10.0 0.00 0.60 0.00 31 1010.4
20260509201518 84 195 3.0 8.0 0.00 0.60 0.00 34 1010.4
20260509201010 84 119 5.0 8.0 0.00 0.60 0.00 32 1010.6
20260509200515 84 149 2.0 8.0 0.00 0.60 0.00 32 1010.6
20260509200016 84 149 4.0 8.0 0.00 0.60 0.00 32 1010.7
20260509195511 84 115 1.0 7.0 0.00 0.60 0.00 37 1010.9
20260509195006 84 182 4.0 7.0 0.00 0.60 0.00 36 1010.8
20260509194515 84 156 3.0 6.0 0.00 0.60 0.00 36 1010.9
20260509194002 83 158 1.0 6.0 0.00 0.60 0.00 38 1011.0
20260509193507 83 179 2.0 9.0 0.00 0.60 0.00 36 1011.1
20260509193013 83 116 3.0 9.0 0.00 0.60 0.00 33 1011.1
20260509192503 83 92 5.0 9.0 0.00 0.60 0.00 28 1011.2
20260509192007 83 124 4.0 9.0 0.00 0.60 0.00 30 1011.2
20260509191510 83 99 1.0 8.0 0.00 0.60 0.00 32 1011.1
20260509191007 83 122 2.0 8.0 0.00 0.60 0.00 40 1011.1
20260509190507 82 123 2.0 9.0 0.00 0.60 0.00 39 1011.1
20260509190006 82 156 3.0 9.0 0.00 0.60 0.00 36 1011.1
20260509185503 82 129 1.0 6.0 0.00 0.60 0.00 43 1011.1
20260509185007 81 196 1.0 7.0 0.00 0.60 0.00 46 1011.1
20260509184509 81 196 2.0 7.0 0.00 0.60 0.00 42 1011.2
20260509184008 81 155 4.0 7.0 0.00 0.60 0.00 46 1011.2
20260509183507 82 212 2.0 7.0 0.00 0.60 0.00 46 1011.2
20260509183004 81 101 4.0 7.0 0.00 0.60 0.00 41 1011.3
20260509182506 81 127 3.0 7.0 0.00 0.60 0.00 47 1011.4
20260509182010 81 108 4.0 8.0 0.00 0.60 0.00 48 1011.4
20260509181504 80 131 2.0 8.0 0.00 0.60 0.00 52 1011.4
20260509181008 81 230 3.0 8.0 0.00 0.60 0.00 52 1011.4
20260509180506 81 139 2.0 7.0 0.00 0.60 0.00 54 1011.4
20260509180021 80 168 1.0 7.0 0.00 0.60 0.00 47 1011.5
20260509175504 80 142 3.0 7.0 0.00 0.60 0.00 51 1011.6
20260509175004 79 98 2.0 7.0 0.00 0.60 0.00 52 1011.7
20260509174541 79 156 1.0 7.0 0.00 0.60 0.00 52 1011.7
20260509174007 78 200 2.0 7.0 0.00 0.60 0.00 52 1011.8
20260509173504 79 152 2.0 6.0 0.00 0.60 0.00 56 1011.8
20260509173016 78 206 2.0 11.0 0.00 0.60 0.00 51 1011.8
20260509172510 77 178 1.0 11.0 0.00 0.60 0.00 53 1011.9
20260509172011 77 195 4.0 7.0 0.00 0.60 0.00 56 1012.0
20260509171510 77 230 2.0 7.0 0.00 0.60 0.00 63 1012.1
20260509171010 77 147 2.0 7.0 0.00 0.60 0.00 60 1012.2
20260509170507 77 177 1.0 5.0 0.00 0.60 0.00 63 1012.1
20260509170012 76 126 2.0 5.0 0.00 0.60 0.00 66 1012.1
20260509165504 75 181 2.0 5.0 0.00 0.60 0.00 69 1012.1
20260509165009 76 160 2.0 9.0 0.00 0.60 0.00 67 1012.3
20260509164509 75 153 1.0 9.0 0.00 0.60 0.00 67 1012.3
20260509164011 74 165 5.0 9.0 0.00 0.60 0.00 68 1012.2
20260509163504 74 171 2.0 8.0 0.00 0.60 0.00 69 1012.2
20260509163006 74 146 2.0 8.0 0.00 0.60 0.00 69 1012.2
20260509162513 74 175 2.0 7.0 0.00 0.60 0.00 71 1012.2
20260509162004 74 185 2.0 6.0 0.00 0.60 0.00 71 1012.1
20260509161503 74 165 2.0 6.0 0.00 0.60 0.00 71 1012.0
20260509161012 73 160 4.0 5.0 0.00 0.60 0.00 70 1012.1
20260509160507 73 155 2.0 4.0 0.00 0.60 0.00 72 1012.0
20260509160022 72 187 3.0 4.0 0.00 0.60 0.00 75 1012.0
20260509155504 72 137 2.0 4.0 0.00 0.60 0.00 76 1012.0
20260509155004 71 201 2.0 4.0 0.00 0.60 0.00 77 1011.9
20260509154519 71 174 2.0 3.0 0.00 0.60 0.00 80 1011.9
20260509154010 71 203 2.0 3.0 0.00 0.60 0.00 77 1011.9
20260509153505 71 165 1.0 3.0 0.00 0.60 0.00 78 1011.8
20260509153033 70 176 1.0 4.0 0.00 0.60 0.00 78 1011.8
20260509152505 70 162 1.0 4.0 0.00 0.60 0.00 80 1011.9